TimeMST,TemperatureF,Dew PointF,Humidity,Sea Level PressureIn,VisibilityMPH,Wind Direction,Wind SpeedMPH,Gust SpeedMPH,PrecipitationIn,Events,Conditions,WindDirDegrees,DateUTC
12:55 AM,-0.9,-5.1,83,30.52,10.0,NW,5.8,-,N/A,,Scattered Clouds,320,2012-12-25 07:55:00
1:52 AM,-0.4,-5.8,78,30.38,10.0,NNW,3.5,-,N/A,,Mostly Cloudy,340,2012-12-25 08:52:00
1:55 AM,-0.9,-5.1,83,30.53,10.0,NNW,3.5,-,N/A,,Mostly Cloudy,340,2012-12-25 08:55:00
2:55 AM,-0.9,-5.1,83,30.54,10.0,NW,4.6,-,N/A,,Mostly Cloudy,310,2012-12-25 09:55:00
3:55 AM,-2.0,-6.0,83,30.55,10.0,WNW,4.6,-,N/A,,Scattered Clouds,300,2012-12-25 10:55:00
4:55 AM,-0.9,-6.0,79,30.56,10.0,Calm,Calm,-,N/A,,Mostly Cloudy,0,2012-12-25 11:55:00
5:55 AM,-2.9,-7.1,82,30.58,10.0,WNW,3.5,-,N/A,,Scattered Clouds,300,2012-12-25 12:55:00
6:55 AM,-2.0,-6.0,83,30.59,10.0,Calm,Calm,-,N/A,,Mostly Cloudy,0,2012-12-25 13:55:00
7:55 AM,-0.9,-6.0,79,30.60,10.0,West,4.6,-,N/A,,Scattered Clouds,280,2012-12-25 14:55:00
8:55 AM,3.0,-2.0,80,30.61,10.0,WNW,3.5,-,N/A,,Overcast,290,2012-12-25 15:55:00
9:55 AM,5.0,-0.9,76,30.61,10.0,West,3.5,-,N/A,,Overcast,280,2012-12-25 16:55:00
10:55 AM,8.1,1.9,76,30.58,10.0,WSW,3.5,-,N/A,,Overcast,250,2012-12-25 17:55:00
11:55 AM,9.0,3.9,80,30.55,6.0,Calm,Calm,-,0.00,,Haze,0,2012-12-25 18:55:00
12:55 PM,12.0,6.1,77,30.51,10.0,Calm,Calm,-,N/A,,Overcast,0,2012-12-25 19:55:00
1:55 PM,14.0,7.0,74,30.47,10.0,SSE,6.9,-,N/A,,Overcast,160,2012-12-25 20:55:00
2:55 PM,12.9,6.1,74,30.46,10.0,South,8.1,-,N/A,,Scattered Clouds,180,2012-12-25 21:55:00
3:55 PM,12.0,5.0,73,30.46,10.0,SSE,4.6,-,N/A,,Scattered Clouds,150,2012-12-25 22:55:00
4:55 PM,12.0,6.1,77,30.48,10.0,SE,4.6,-,N/A,,Overcast,140,2012-12-25 23:55:00
5:55 PM,12.0,7.0,80,30.46,5.0,ESE,8.1,-,0.00,Snow,Light Snow,120,2012-12-26 00:55:00
6:55 PM,12.9,8.1,81,30.43,10.0,SSE,10.4,-,0.00,,Mostly Cloudy,150,2012-12-26 01:55:00
7:55 PM,12.9,8.1,81,30.41,10.0,SE,9.2,-,N/A,,Overcast,140,2012-12-26 02:55:00
8:55 PM,12.9,8.1,81,30.37,10.0,SE,6.9,-,N/A,,Overcast,140,2012-12-26 03:55:00
9:55 PM,9.0,5.0,84,30.35,10.0,East,9.2,-,N/A,,Overcast,80,2012-12-26 04:55:00
10:55 PM,5.0,1.9,87,30.32,10.0,East,5.8,-,N/A,,Clear,100,2012-12-26 05:55:00
11:55 PM,5.0,1.0,84,30.29,10.0,East,5.8,-,N/A,,Clear,100,2012-12-26 06:55:00